Flag for India Weather past 2 weeks in Ahmedabad, Gujarat, India

Now
54 °F

Haze.


Feels Like: 52 °F
Forecast: 55 / 84 °F
Wind: 6 mph from Northeast

Location: Ahmadabad Airport

Current Time: Dec 21, 2014 at 9:02:27 AM

Latest Report: Dec 21, 2014 at 8:10 AM


Visibility: 1 mi

Pressure: 29.98 "Hg

Humidity: 72%

Dew point: 45 °F

Location of AhmedabadLocation

Historic Weather in Ahmedabad — Graph

°F

Ahmedabad temperature yesterday

Maximum temperature yesterday: 75 °F (at 3:40 PM)
Minimum temperature yesterday: 54 °F (at 10:40 PM)
Average temperature yesterday: 63 °F

Past Weeks' High & Low Weather Summary

 TemperatureHumidityPressure
High90 °F (Dec 8, 3:10 PM)88% (Dec 13, 5:10 AM)30.18 "Hg (Dec 13, 5:10 AM)
Low46 °F (Dec 15, 5:40 AM)18% (Dec 15, 2:10 PM)29.80 "Hg (Dec 12, 4:10 PM)
Average68 °F50%29.98 "Hg
* Reported Dec 6 7:40 AM — Dec 21 7:40 AM, Ahmedabad, Weather by CustomWeather, © 2014

Note: Actual official high and low records may vary slightly from our data, if they occured in-between our weather recording intervals... More about our weather records

Advertising

Ahmedabad weather history for previous 24 hours

 ConditionsComfort  
Time TempWeatherWind HumidityBarometerVisibility
7:40 AM
Dec 21
52 °FHaze.6 mph72%29.98 "Hg1 mi
5:40 AM50 °FPassing clouds.5 mph76%29.95 "Hg2 mi
5:10 AM52 °FPassing clouds.3 mph72%29.95 "Hg2 mi
4:40 AM52 °FPassing clouds.6 mph72%29.95 "Hg2 mi
4:10 AM52 °FPassing clouds.5 mph72%29.95 "Hg2 mi
3:40 AM52 °FPassing clouds.6 mph72%29.95 "Hg2 mi
3:10 AM54 °FPassing clouds.6 mph67%29.95 "Hg2 mi
2:40 AM52 °FPassing clouds.5 mph72%29.95 "Hg2 mi
1:40 AM52 °FPassing clouds.No wind72%29.98 "Hg2 mi
12:40 AM54 °FPassing clouds.3 mph67%29.98 "Hg2 mi
11:40 PM
Dec 20
55 °FPassing clouds.3 mph67%30.01 "Hg2 mi
10:40 PM54 °FPassing clouds.No wind72%30.01 "Hg2 mi
9:40 PM57 °FPassing clouds.No wind67%30.01 "Hg2 mi
9:10 PM57 °FPassing clouds.No wind67%30.01 "Hg2 mi
8:40 PM61 °FPassing clouds.3 mph59%30.01 "Hg2 mi
8:10 PM61 °FPassing clouds.5 mph59%30.01 "Hg2 mi
7:40 PM61 °FPassing clouds.2 mph63%30.01 "Hg2 mi
6:40 PM63 °FPassing clouds.3 mph56%29.98 "Hg2 mi
5:40 PM70 °FScattered clouds.3 mph43%29.95 "Hg3 mi
4:40 PMN/A9 mphN/AN/A4 mi
4:10 PMN/A9 mphN/AN/A4 mi
3:40 PM75 °FPartly sunny.5 mph39%29.98 "Hg4 mi
2:40 PMN/A9 mphN/AN/A4 mi
2:10 PMN/A6 mphN/AN/A4 mi
1:40 PM73 °FPartly sunny.5 mph44%30.01 "Hg3 mi
1:10 PM73 °FPartly sunny.9 mph44%30.01 "Hg3 mi
12:40 PM72 °FPartly sunny.7 mph44%30.04 "Hg3 mi
12:10 PM72 °FPartly sunny.7 mph44%30.07 "Hg3 mi
11:10 AM70 °FPartly sunny.8 mph43%30.09 "Hg2 mi
10:40 AM68 °FPartly sunny.7 mph46%30.09 "Hg2 mi
9:40 AM66 °FScattered clouds.7 mph49%30.09 "Hg2 mi
9:10 AM63 °FPartly sunny.9 mph52%30.09 "Hg2 mi
Weather by CustomWeather, © 2014

See weather overviewHow to use our weather pages